Location: Baia Mare
(47.6567°N, 23.5850°E)
Time: 18:50:09
(UTC+03:00)

ISS - Pass Details

Date: 09 September 2018
Orbit: 403 x 408 km, 51.6° (Epoch: 23 September)

Event Time Altitude Azimuth Distance (km) Brightness Sun altitude
Exits shadow 04:46:12 44° 345° (NNW) 570 -3.0 -20.8°
Maximum altitude 04:46:17 45° 350° (N) 568 -3.0 -20.8°
Drops below altitude 10° 04:49:27 10° 64° (ENE) 1,464 0.2 -20.3°
Sets 04:51:35 0° 71° (ENE) 2,324 1.4 -20.0°
